Regional Weather Roundup
Issued by NWS Newport/Morehead, NC

Current Version | Previous Version | Graphics & Text | Print | Product List | Glossary On
Versions: 1 2 3 4 5 6 7 8 9 10 11 12 13 14 15 16 17 18 19 20 21 22 23 24 25 26 27 28 29 30 31 32 33 34 35 36 37 38 39 40 41 42 43 44 45 46 47 48 49 50
000 ASUS42 KMHX 012325 RWRMHX WEATHER ROUNDUP FOR EASTERN NORTH CAROLINA NATIONAL WEATHER SERVICE NEWPORT/MOREHEAD CITY NC 700 PM EDT SAT AUG 01 2015 NOTE: "FAIR" INDICATES FEW OR NO CLOUDS BELOW 12,000 FEET WITH NO SIGNIFICANT WEATHER AND/OR OBSTRUCTIONS TO VISIBILITY NCZ015>017-031-032-045>047-102-103-020000- NORTH COAST CITY SKY/WX TMP DP RH WIND PRES REMARKS EDENTON N/A 86 72 61 S8 29.86R ELIZABETH CITY SUNNY 86 70 58 SE7 29.86S KITTY HAWK CLEAR 86 71 59 S5 29.86S MANTEO SUNNY 83 73 72 S10 29.87F $$ NCZ045>047-081-094-103-104-020000- CENTRAL COAST CITY SKY/WX TMP DP RH WIND PRES REMARKS FRISCO MOSUNNY 82 75 79 SW8 29.88F SWANQUARTER N/A 84 N/A N/A S10G16 29.82S $$ NCZ095-097-098-100-101-020000- SOUTHERN COAST CITY SKY/WX TMP DP RH WIND PRES REMARKS BEAUFORT PTSUNNY 81 76 84 S14 29.89R CEDAR ISLAND N/A 84 N/A N/A S6G14 29.91S JACKSONVILLE SUNNY 84 74 71 S8 29.87R PINEY ISLAND PTCLDY N/A N/A N/A S9 29.87S WILMINGTON PTSUNNY 82 71 69 S5 29.88S $$ NCZ011>013-027>030-043-044-078>080-089-090>093-098-020000- COASTAL PLAIN CITY SKY/WX TMP DP RH WIND PRES REMARKS AHOSKIE MOSUNNY 87 61 42 CALM 29.86R CLINTON SUNNY 85 68 55 CALM 29.86S ELIZABETHTOWN SUNNY 92 59 32 CALM 29.86S GOLDSBORO SUNNY 92 64 39 NW6 29.84S GREENVILLE SUNNY 88 64 45 SW5 29.88S HAVELOCK MOSUNNY 83 75 77 SW10 29.88S KENANSVILLE SUNNY 87 67 51 CALM 29.87S KINSTON SUNNY 90 63 40 CALM 29.87S NEW BERN SUNNY 87 75 67 S10 29.87S RICHLANDS SUNNY 90 64 43 S12 29.87R ROCKY MOUNT SUNNY 93 56 28 W9 29.86S WASHINGTON SUNNY 88 65 46 CALM 29.86R WHITEVILLE SUNNY 87 75 66 S7 29.87S $$ AMZ130-135-150-152-154-156-158-170-250-252-270-ANZ085-086-088-633-658-670-020000- MARINE OBSERVATIONS STATION/POSITION TIME TEMP WIND PRES WAVE SWELL AIR SEA DIR/SP/G HT/PER HT/PER (UTC) (F) (DEG/KT/KT) (MB) (FT/S) (FT/S) CHESAPEAKE LIGHT 2300 81 160/ 15/ 16 1011.6 64 E VA BEACH 2250 80 82 180/ 14/ 16 1011.5 4/ 6 2/ 7 DUCK 2300 83 79 160/ 10/ 13 1010.5 2 E DUCK 2211 80 N/A 3/ 6 OREGON INLET 2300 83 84 160/ 9/ 11 1011.6 13E OREGON INLT 2300 82 N/A 3/ 7 2/13 HATTERAS CG 2300 83 81 220/ 6/ 9 1011.5 DIAMOND BUOY 2250 83 85 230/ 12/ 16 1012.0 3/ 8 2/ 8 CAPE LOOKOUT 2300 81 200/ 12/ 16 1011.7 BEAUFORT LAB 2300 81 84 220/ 10/ 16 1011.3 30 SE NEW RVR IN NOT AVBL 27 SE WRIGHTSVLE 2300 78 83 240/ 12/ 14 N/A 5 SE WRIGHTSVLE 2208 82 83 220/ 16/ 21 1011.6 225 S CAPE HAT 2250 83 81 210/ 12/ 14 1014.8 6/ 7 5/ 7 41 SE CHARLESTON 2250 80 84 150/ 6/ 8 1011.6 3/ 6 3/ 6 $$

USA.gov is the U.S. government's official web portal to all federal, state and local government web resources and services.